Regional Weather Roundup
Issued by NWS

Home | Current Version | Previous Version | Text Only | Print | Product List | Glossary On
Versions: 1 2 3 4 5 6 7 8 9 10 11 12 13 14 15 16 17 18 19 20 21 22 23 24 25 26 27 28 29 30 31 32 33 34 35 36 37 38 39 40 41 42 43 44 45 46 47 48 49 50
551
ASUS43 KOAX 310310
RWRNE

WEATHER ROUNDUP FOR NEBRASKA
NATIONAL WEATHER SERVICE OMAHA NE
1000 PM CDT SAT JUL 30 2016

NOTES: SATELLITE DATA IS BEING USED TO AUGMENT CLOUD COVER ABOVE
       12000 FEET.
       "FAIR" INDICATES FEW OR NO CLOUDS BELOW 12,000 FEET WITH NO
       SIGNIFICANT WEATHER AND/OR OBSTRUCTIONS TO VISIBILITY.

  * THESE STATIONS DO NOT REPORT WEATHER SUCH AS RAIN...SNOW OR FOG.

NEZ001>004-019>022-054>056-310400-
NEBRASKA PANHANDLE

CITY           SKY/WX    TMP DP  RH WIND       PRES   REMARKS
SCOTTSBLUFF    CLOUDY    80  60  50 SE13      29.88F
ALLIANCE       CLEAR     70  61  73 S7        29.92R
CHADRON        CLEAR     81  59  47 SE18G28   29.82R
KIMBALL        CLEAR     72  62  69 S7        29.99R
SIDNEY         CLEAR     71  60  68 S9        29.97R
$$

NEZ057>060-069>072-079>082-310400-
SOUTHWEST NEBRASKA

CITY           SKY/WX    TMP DP  RH WIND       PRES   REMARKS
NORTH PLATTE   CLEAR     73  69  87 E9        29.92R
IMPERIAL       CLEAR     75  64  68 SE9       29.92R
LEXINGTON      CLEAR     76  68  77 SE9       29.94R
MCCOOK         CLEAR     77  64  64 E8        29.90R
OGALLALA       CLEAR     78  62  57 E6        29.92R
$$

NEZ005>010-023>029-035>040-094-310400-
NORTH CENTRAL NEBRASKA

CITY           SKY/WX    TMP DP  RH WIND       PRES   REMARKS
VALENTINE      CLOUDY    78  65  63 S18       29.87F
AINSWORTH      CLOUDY    75  69  80 S6        29.92F
BROKEN BOW     CLEAR     73  69  87 SE8       29.94R
O`NEILL        CLOUDY    73  66  79 SE10      29.94R
ORD            CLOUDY    74  69  85 SE9       29.93R
THEDFORD       CLOUDY    76  69  78 SE6       29.95R
$$

NEZ041-046>049-061>064-073>077-083>087-310400-
SOUTH CENTRAL NEBRASKA

CITY           SKY/WX    TMP DP  RH WIND       PRES   REMARKS
GRAND ISLAND   CLEAR     73  66  78 SE12      29.95R
AURORA         CLEAR     70  68  95 SE7       29.96R
HASTINGS       CLEAR     74  64  71 SE12      29.96R
HEBRON         PTCLDY    74  68  82 E6        29.95R
HOLDREGE       CLEAR     73  68  84 E9        29.94R
KEARNEY *      CLEAR     73  70  88 SE7       29.95R
YORK           CLEAR     72  66  83 SE7       29.97R
$$

NEZ011>018-030>034-042>045-310400-
NORTHEAST NEBRASKA

CITY           SKY/WX    TMP DP  RH WIND       PRES   REMARKS
NORFOLK        PTCLDY    71  64  78 SE8       29.95R
ALBION         PTCLDY    70  66  87 SE6       29.95S
BLAIR          CLEAR     72  66  81 SE5       29.97R
FREMONT        CLEAR     72  65  78 SE6       29.97R
TEKAMAH        MOCLDY    71  64  78 S3        29.96R
WAYNE          CLEAR     68  65  91 SE6       29.96S
$$

NEZ050>053-065>068-078-088>093-310400-
SOUTHEAST NEBRASKA

CITY           SKY/WX    TMP DP  RH WIND       PRES   REMARKS
LINCOLN        CLEAR     74  66  76 SE8       29.97R
OMAHA EPPLEY   PTCLDY    75  64  68 SE6       29.96R
BEATRICE       CLEAR     72  68  88 E3        29.97R
FALLS CITY     CLEAR     72  68  87 E3        29.95R
NEBRASKA CITY  CLEAR     70  68  93 SE3       29.98R
PLATTSMOUTH    CLEAR     71  67  87 SE5       29.98R
$$

NEZ044-045-051>053-067-310400-
OMAHA AREA

CITY           SKY/WX    TMP DP  RH WIND       PRES   REMARKS
OMAHA EPPLEY   PTCLDY    75  64  68 SE6       29.96R
BLAIR          CLEAR     72  66  81 SE5       29.97R
FREMONT        CLEAR     72  65  78 SE6       29.97R
MILLARD        CLEAR     73  66  79 SE3       29.96R
OFFUTT AFB     CLEAR     69  67  91 E5        29.96R
PLATTSMOUTH    CLEAR     71  67  87 SE5       29.98R
WAHOO          FAIR      68  65  89 E6        29.97R
$$




USA.gov is the U.S. government's official web portal to all federal, state and local government web resources and services.